| time (UTC) | temp F | wind direction | speed MPH | gust MPH | rain 1hr in | rain 24hr in | rain mn in | humidity % | barometer mb |
| 20260503034503 | 42 | 313 | 1.0 | 10.0 | 0.00 | 0.33 | 0.33 | 94 | 1006.8 |
| 20260503033100 | 43 | 336 | 3.0 | 7.0 | 0.00 | 0.33 | 0.33 | 94 | 1006.8 |
| 20260503031600 | 43 | 314 | 3.0 | 7.0 | 0.00 | 0.33 | 0.33 | 94 | 1006.8 |
| 20260503024557 | 44 | 314 | 5.0 | 10.0 | 0.00 | 0.33 | 0.33 | 94 | 1006.8 |
| 20260503023107 | 44 | 274 | 1.0 | 6.0 | 0.01 | 0.33 | 0.33 | 94 | 1007.0 |
| 20260503021601 | 44 | 156 | 1.0 | 4.0 | 0.01 | 0.33 | 0.33 | 94 | 1007.0 |
| 20260503020059 | 44 | 82 | 0.0 | 0.0 | 0.01 | 0.33 | 0.33 | 94 | 1006.9 |
| 20260503014555 | 44 | 82 | 0.0 | 0.0 | 0.02 | 0.33 | 0.33 | 94 | 1007.0 |
| 20260503013059 | 44 | 82 | 0.0 | 0.0 | 0.01 | 0.32 | 0.32 | 94 | 1007.0 |
| 20260503011619 | 44 | 82 | 0.0 | 0.0 | 0.01 | 0.32 | 0.32 | 94 | 1006.9 |
| 20260503010057 | 44 | 82 | 0.0 | 0.0 | 0.02 | 0.32 | 0.32 | 94 | 1006.8 |
| 20260503004554 | 45 | 82 | 0.0 | 0.0 | 0.01 | 0.31 | 0.31 | 94 | 1006.7 |
| 20260503003053 | 45 | 82 | 0.0 | 0.0 | 0.02 | 0.31 | 0.31 | 94 | 1006.8 |
| 20260503001553 | 45 | 82 | 0.0 | 0.0 | 0.02 | 0.31 | 0.31 | 93 | 1006.6 |
| 20260503000103 | 45 | 82 | 1.0 | 2.0 | 0.02 | 0.30 | 0.30 | 93 | 1006.4 |
| 20260502234601 | 46 | 83 | 3.0 | 8.0 | 0.03 | 0.30 | 0.30 | 93 | 1006.1 |
| 20260502233053 | 46 | 55 | 4.0 | 5.0 | 0.02 | 0.28 | 0.28 | 94 | 1006.3 |
| 20260502231550 | 46 | 279 | 1.0 | 4.0 | 0.03 | 0.28 | 0.28 | 94 | 1006.5 |
| 20260502230050 | 47 | 360 | 0.0 | 4.0 | 0.02 | 0.28 | 0.28 | 93 | 1006.4 |
| 20260502224550 | 47 | 333 | 1.0 | 5.0 | 0.01 | 0.27 | 0.27 | 94 | 1006.3 |
| 20260502223051 | 47 | 273 | 2.0 | 5.0 | 0.02 | 0.27 | 0.27 | 93 | 1006.3 |
| 20260502221557 | 47 | 355 | 1.0 | 5.0 | 0.01 | 0.26 | 0.26 | 93 | 1006.2 |
| 20260502220057 | 47 | 13 | 1.0 | 7.0 | 0.02 | 0.26 | 0.26 | 92 | 1005.9 |
| 20260502214549 | 48 | 313 | 6.0 | 10.0 | 0.03 | 0.26 | 0.26 | 93 | 1005.9 |
| 20260502213048 | 49 | 350 | 3.0 | 6.0 | 0.02 | 0.25 | 0.25 | 93 | 1005.8 |
| 20260502211547 | 49 | 28 | 2.0 | 5.0 | 0.02 | 0.24 | 0.24 | 92 | 1005.8 |
| 20260502210058 | 49 | 94 | 1.0 | 4.0 | 0.03 | 0.24 | 0.24 | 92 | 1005.8 |
| 20260502204548 | 49 | 145 | 1.0 | 3.0 | 0.02 | 0.23 | 0.23 | 93 | 1005.7 |
| 20260502203044 | 49 | 136 | 0.0 | 5.0 | 0.03 | 0.23 | 0.23 | 93 | 1005.8 |
| 20260502201549 | 49 | 148 | 4.0 | 6.0 | 0.03 | 0.22 | 0.22 | 92 | 1005.8 |
| 20260502200057 | 48 | 112 | 1.0 | 5.0 | 0.02 | 0.21 | 0.21 | 92 | 1005.8 |
| 20260502194543 | 48 | 165 | 0.0 | 4.0 | 0.03 | 0.21 | 0.21 | 92 | 1006.1 |
| 20260502193044 | 48 | 153 | 3.0 | 7.0 | 0.03 | 0.20 | 0.20 | 91 | 1006.3 |
| 20260502191547 | 48 | 119 | 1.0 | 7.0 | 0.03 | 0.19 | 0.19 | 91 | 1006.2 |
| 20260502190047 | 48 | 102 | 0.0 | 1.0 | 0.04 | 0.19 | 0.19 | 91 | 1006.3 |
| 20260502184541 | 48 | 80 | 1.0 | 6.0 | 0.04 | 0.18 | 0.18 | 91 | 1006.4 |
| 20260502183040 | 48 | 54 | 1.0 | 3.0 | 0.04 | 0.17 | 0.17 | 91 | 1006.7 |
| 20260502181540 | 47 | 46 | 1.0 | 5.0 | 0.04 | 0.16 | 0.16 | 90 | 1006.8 |
| 20260502163036 | 50 | 184 | 0.0 | 5.0 | 0.00 | 0.11 | 0.11 | 84 | 1006.8 |
| 20260502161531 | 49 | 294 | 1.0 | 4.0 | 0.00 | 0.11 | 0.11 | 84 | 1006.8 |
| 20260502151548 | 48 | 167 | 2.0 | 5.0 | 0.00 | 0.11 | 0.11 | 89 | 1007.4 |
| 20260502123008 | 44 | 272 | 0.0 | 1.0 | 0.04 | 0.09 | 0.09 | 94 | 1008.4 |
| 20260502121507 | 43 | 272 | 0.0 | 4.0 | 0.04 | 0.09 | 0.09 | 94 | 1008.3 |
| 20260502114505 | 43 | 271 | 0.0 | 4.0 | 0.02 | 0.06 | 0.06 | 93 | 1008.3 |
| 20260502113005 | 43 | 271 | 1.0 | 4.0 | 0.01 | 0.05 | 0.05 | 93 | 1008.4 |
| 20260502111504 | 43 | 317 | 2.0 | 5.0 | 0.02 | 0.05 | 0.05 | 93 | 1007.9 |
| 20260502110002 | 43 | 343 | 5.0 | 7.0 | 0.03 | 0.05 | 0.05 | 93 | 1007.5 |
| 20260502104558 | 43 | 340 | 1.0 | 7.0 | 0.03 | 0.04 | 0.04 | 92 | 1007.5 |
| 20260502103105 | 43 | 15 | 2.0 | 6.0 | 0.04 | 0.04 | 0.04 | 92 | 1007.8 |
| 20260502101558 | 43 | 327 | 2.0 | 6.0 | 0.03 | 0.03 | 0.03 | 91 | 1007.9 |
| 20260502090110 | 44 | 265 | 1.0 | 2.0 | 0.00 | 0.00 | 0.00 | 87 | 1007.3 |
| 20260502071534 | 46 | 46 | 1.0 | 4.0 | 0.00 | 0.00 | 0.00 | 75 | 1007.8 |
| 20260502070045 | 46 | 278 | 0.0 | 2.0 | 0.00 | 0.00 | 0.00 | 74 | 1007.9 |
| 20260502064530 | 46 | 240 | 1.0 | 2.0 | 0.00 | 0.00 | 0.00 | 70 | 1008.0 |
| 20260502063037 | 46 | 240 | 2.0 | 5.0 | 0.00 | 0.00 | 0.00 | 68 | 1008.1 |
| 20260502061528 | 47 | 255 | 2.0 | 10.0 | 0.00 | 0.00 | 0.00 | 70 | 1008.4 |
| 20260502060027 | 46 | 196 | 5.0 | 10.0 | 0.00 | 0.00 | 0.00 | 63 | 1008.4 |
| 20260502054532 | 46 | 257 | 0.0 | 5.0 | 0.00 | 0.00 | 0.00 | 64 | 1008.4 |
| 20260502053024 | 46 | 255 | 0.0 | 2.0 | 0.00 | 0.00 | 0.00 | 62 | 1008.0 |
| 20260502051521 | 46 | 255 | 0.0 | 0.0 | 0.00 | 0.00 | 0.00 | 59 | 1007.6 |
| 20260502050035 | 46 | 255 | 0.0 | 1.0 | 0.00 | 0.00 | 0.00 | 63 | 1007.8 |
| 20260502044517 | 47 | 255 | 0.0 | 4.0 | 0.00 | 0.00 | 0.00 | 65 | 1007.9 |
| 20260502043019 | 47 | 323 | 0.0 | 0.0 | 0.00 | 0.00 | 0.00 | 61 | 1007.9 |
| 20260502041514 | 47 | 323 | 0.0 | 0.0 | 0.00 | 0.00 | 0.00 | 62 | 1007.5 |
| 20260502040012 | 47 | 323 | 0.0 | 0.0 | 0.00 | 0.00 | 0.00 | 63 | 1007.5 |